[[{"header":{"parameterUnit":"m.s-1","parameterCategory":1,"la1":30.2991,"la2":30.254,"lo1":-89.0895,"lo2":-89.0444,"dy":0.0017,"dx":0.0017,"nx":28,"ny":28,"refTime":"2024-09-04T03:00:00:Z","depth":0,"parameterNumber":2,"parameterNumberName":"U-component_of_WINDS"},"data":[0,0,0,0,0,0,0,0,0,0,0,0,0,0,0,0,0,0,0,0,0,0,0,0,0,0,0,0,0,0,0,0,0,0,0,0,0,0,0,0,0,0,0,0,0,0,0,0,0,0,0,0,0,0,0,0,0,0,-7.3629,-7.3631,0,-7.3752,-7.3753,-7.3755,-7.3615,-7.361,-7.3605,-7.36,-7.3725,-7.3733,-7.3741,0,0,0,0,0,0,0,0,0,0,0,0,0,-7.3273,-7.328,-7.3629,-7.3631,-7.3632,-7.3752,-7.3753,-7.3755,-7.3616,-7.361,-7.3603,-7.3597,-7.3722,-7.3732,-7.3742,0,0,0,0,0,0,0,0,0,0,0,0,0,-7.3415,-7.3283,-7.3629,-7.3577,-7.3574,-7.3751,-7.3753,-7.3755,-7.3618,-7.361,-7.3602,-7.3594,-7.3719,-7.3731,-7.3743,-7.3977,0,0,-7.3781,-7.3786,0,0,0,0,0,0,0,0,-7.3407,-7.3428,-7.3583,-7.3581,-7.3578,-7.366,-7.3673,-7.383,-7.362,-7.3601,-7.36,-7.3591,-7.371,-7.3722,-7.3763,-7.3983,-7.3988,-7.3782,-7.3789,-7.3795,-7.3798,0,0,0,0,0,0,0,-7.3398,-7.3422,-7.3677,-7.3586,-7.3582,-7.3548,-7.3559,-7.3702,-7.3698,-7.3602,-7.3592,-7.3609,-7.3707,-7.3751,-7.3765,-7.399,-7.3782,-7.3793,-7.38,-7.3805,-7.4407,-7.4416,0,0,0,0,0,0,-7.3394,-7.3415,-7.3674,-7.3681,-7.3471,-7.356,-7.3573,-7.3642,-7.3696,-7.3697,-7.3615,-7.3602,-7.3734,-7.375,-7.3768,-7.4046,-7.3795,-7.3806,-7.3813,-7.4399,-7.4409,-7.4419,0,0,0,0,0,0,-7.3387,-7.3418,-7.3669,-7.3546,-7.3575,-7.3575,-7.3653,-7.3648,-7.3692,-7.3706,-7.3704,-7.3662,-7.3728,-7.3751,-7.3926,-7.4048,-7.3812,-7.3823,-7.4389,-7.4402,-7.4414,-7.4602,0,0,0,0,0,0,-7.3377,-7.3416,-7.3506,-7.3549,-7.3582,-7.3826,-7.366,-7.3656,-7.3714,-7.3698,-7.3749,-7.375,-7.3724,-7.3908,-7.3938,-7.4061,-7.3833,-7.4378,-7.4395,-7.441,-7.4585,-7.462,-7.465,0,0,0,0,0,-7.3365,-7.3554,-7.3511,-7.3543,-7.3694,-7.3833,-7.3852,-7.3818,-7.3725,-7.3814,-7.3823,-7.3748,-7.403,-7.3928,-7.396,-7.4088,-7.437,-7.439,-7.4409,-7.4571,-7.4613,-7.4649,0,0,0,0,0,0,-7.3525,-7.3559,-7.3511,-7.372,-7.3775,-7.3809,-7.3921,-7.3864,-7.3946,-7.3927,-7.3881,-7.3894,-7.408,-7.4101,-7.3987,-7.4317,-7.4184,-7.4211,-7.4297,-7.4337,-7.4369,-7.436,-7.3843,0,0,0,0,0,-7.3585,-7.3696,-7.3718,-7.39,-7.393,-7.3921,-7.3981,-7.395,-7.4004,-7.4027,-7.4048,-7.4104,-7.4204,-7.4271,-7.4365,-7.4587,-7.4596,-7.4691,-7.4723,-7.475,-7.4774,-7.4893,-7.4936,-7.4482,-7.4482,-7.4482,0,0,-7.371,-7.3741,-7.3814,-7.3933,-7.3972,-7.4087,-7.3942,-7.407,-7.4155,-7.4046,-7.4213,-7.423,-7.4289,-7.4489,-7.4578,-7.4512,-7.4901,-7.4775,-7.4796,-7.4805,-7.4917,-7.496,-7.4999,-7.4495,-7.4493,-7.4491,0,0,-7.3995,-7.4031,-7.4186,-7.4228,-7.4288,-7.4281,-7.4318,-7.4361,-7.4369,-7.4536,-7.4456,-7.4556,-7.4731,-7.4776,-7.4822,-7.5124,-7.5059,-7.5156,-7.5325,-7.5442,-7.5478,-7.5509,-7.5617,-7.5657,-7.5179,-7.518,-7.518,0,-7.4143,-7.4314,-7.4273,-7.4407,-7.4462,-7.4368,-7.4525,-7.4567,-7.4656,-7.4695,-7.462,-7.4837,-7.487,-7.5079,-7.5153,-7.5193,-7.5234,-7.515,-7.5476,-7.5507,-7.5536,-7.5638,-7.5679,-7.5191,-7.519,-7.5189,-7.5188,0,-7.4492,-7.4611,-7.4729,-7.4817,-7.4885,-7.503,-7.5011,-7.5084,-7.5047,-7.5048,-7.5218,-7.5254,-7.5354,-7.54,-7.5366,-7.5605,-7.5562,-7.5483,-7.5349,-7.5591,-7.5687,-7.5726,-7.5208,-7.5203,-7.52,-7.5197,0,0,-7.4884,-7.4946,-7.4991,-7.5029,-7.5088,-7.518,-7.532,-7.5417,-7.5481,-7.5544,-7.5661,-7.581,-7.5736,-7.5789,-7.5758,-7.586,-7.6098,-7.5767,-7.5768,-7.5828,-7.6364,-7.6425,-7.6471,-7.6054,-7.6062,-7.6067,-7.6359,0,-7.5171,-7.5415,-7.5382,-7.5616,-7.5726,-7.5638,-7.576,-7.5809,-7.5813,-7.5907,-7.591,-7.6018,-7.5912,-7.5943,-7.604,-7.6048,-7.6205,-7.6027,-7.6163,-7.6168,-7.6152,-7.6521,-7.6586,-7.6859,-7.6396,-7.6403,-7.6407,0,-7.5539,-7.5616,-7.5862,-7.5903,-7.5948,-7.6059,-7.6145,-7.6235,-7.6289,-7.6284,-7.6343,-7.6294,-7.6433,-7.6296,-7.6488,-7.6368,-7.6421,-7.6434,-7.6443,-7.6456,-7.6303,-7.6544,-7.6946,-7.6987,-7.6466,-7.6461,-7.6457,0,-7.5802,-7.5966,-7.6134,-7.617,-7.6223,-7.6302,-7.6328,-7.6374,-7.6434,-7.6509,-7.6548,-7.6638,-7.6688,-7.6759,-7.6735,-7.6637,-7.6932,-7.6793,-7.6933,-7.6934,-7.7,-7.6996,-7.7417,-7.7033,-7.7032,-7.7032,-7.7031,0,-7.6127,-7.628,-7.6253,-7.6356,-7.6525,-7.6485,-7.6654,-7.6668,-7.671,-7.6815,-7.6743,-7.6843,-7.6805,-7.6902,-7.6884,-7.7046,-7.7069,-7.7069,-7.7063,-7.7076,-7.7077,-7.7111,-7.7092,-7.7043,-7.704,-7.7038,-7.7036,0,-7.6449,-7.6437,-7.6614,-7.6649,-7.6661,-7.6785,-7.6814,-7.6911,-7.6909,-7.7042,-7.7071,-7.7068,-7.7179,-7.7161,-7.7284,-7.7272,-7.7474,-7.7444,-7.7457,-7.745,-7.7591,-7.7578,-7.8049,-7.8109,-7.7686,-7.769,-7.7694,0,-7.6658,-7.6774,-7.6822,-7.6887,-7.6918,-7.7024,-7.7084,-7.7049,-7.7116,-7.7185,-7.7274,-7.7378,-7.7459,-7.764,-7.7649,-7.7742,-7.7714,-7.7873,-7.7728,-7.7738,-7.7717,-7.7711,-7.7723,-7.7902,-7.7907,-7.7911,-7.7914,0,-7.703,-7.7018,-7.7109,-7.7199,-7.7273,-7.7342,-7.7403,-7.746,-7.743,-7.7508,-7.7621,-7.7684,-7.7809,-7.7913,-7.8,-7.8026,-7.7966,-7.7959,-7.7996,-7.8012,-7.8015,-7.8016,-7.7536,-7.7949,-7.7945,-7.7943,-7.7941,-7.7939,-7.7302,-7.7401,-7.7451,-7.7554,-7.7596,-7.7655,-7.7748,-7.7757,-7.785,-7.7949,-7.7922,-7.805,-7.81,-7.8211,-7.8246,-7.8345,-7.8286,-7.834,-7.8354,-7.8368,-7.8385,-7.7998,-7.836,-7.8359,-7.8358,-7.8357,-7.8357,0,-7.7671,-7.7698,-7.7794,-7.7882,-7.7964,-7.7899,-7.7963,-7.8036,-7.8149,-7.82,-7.8282,-7.8411,-7.8511,-7.8528,-7.8623,-7.8699,-7.8674,-7.8725,-7.872,-7.8727,-7.8432,-7.839,-7.8744,-7.8744,-7.8744,-7.8744,-7.8744,-7.8744,-7.7873,-7.8037,-7.8031,-7.8215,-7.824,-7.8365,-7.8407,-7.8461,-7.8502,-7.8649,-7.8732,-7.8742,-7.878,-7.8877,-7.8966,-7.8968,-7.9007,-7.907,-7.9062,-7.8786,-7.8747,-7.8711,-7.8671,-7.9078,-7.9079,-7.9348,-7.935,-7.9352]},{"header":{"parameterUnit":"m.s-1","parameterCategory":1,"la1":30.2991,"la2":30.254,"lo1":-89.0895,"lo2":-89.0444,"dy":0.0017,"dx":0.0017,"nx":28,"ny":28,"refTime":"2024-09-04T03:00:00:Z","depth":0,"parameterNumber":3,"parameterNumberName":"V-component_of_WINDS"},"data":[0,0,0,0,0,0,0,0,0,0,0,0,0,0,0,0,0,0,0,0,0,0,0,0,0,0,0,0,0,0,0,0,0,0,0,0,0,0,0,0,0,0,0,0,0,0,0,0,0,0,0,0,0,0,0,0,0,0,-2.4658,-2.4657,0,-2.4585,-2.4584,-2.4583,-2.452,-2.4519,-2.4518,-2.4517,-2.4443,-2.4442,-2.444,0,0,0,0,0,0,0,0,0,0,0,0,0,-2.4741,-2.474,-2.4658,-2.4657,-2.4656,-2.4585,-2.4584,-2.4583,-2.452,-2.4519,-2.4518,-2.4517,-2.4443,-2.4442,-2.444,0,0,0,0,0,0,0,0,0,0,0,0,0,-2.469,-2.4739,-2.4658,-2.4616,-2.4611,-2.4585,-2.4584,-2.4582,-2.452,-2.4519,-2.4518,-2.4517,-2.4444,-2.4442,-2.444,-2.4449,0,0,-2.4434,-2.4433,0,0,0,0,0,0,0,0,-2.4693,-2.4687,-2.4623,-2.4619,-2.4614,-2.456,-2.4586,-2.4538,-2.452,-2.4555,-2.4517,-2.4516,-2.4483,-2.4477,-2.4466,-2.4446,-2.4443,-2.4434,-2.4433,-2.4432,-2.4431,0,0,0,0,0,0,0,-2.4697,-2.469,-2.4629,-2.4622,-2.4616,-2.46,-2.4592,-2.4576,-2.4526,-2.4551,-2.4547,-2.4539,-2.448,-2.4468,-2.4464,-2.4442,-2.4434,-2.4432,-2.4431,-2.443,-2.4422,-2.4423,0,0,0,0,0,0,-2.4707,-2.4693,-2.4631,-2.4627,-2.4651,-2.4599,-2.459,-2.4578,-2.4526,-2.4517,-2.454,-2.4536,-2.4472,-2.4466,-2.4461,-2.4466,-2.4432,-2.443,-2.4429,-2.4421,-2.4422,-2.4423,0,0,0,0,0,0,-2.4709,-2.4702,-2.4634,-2.4658,-2.4649,-2.4599,-2.4587,-2.4577,-2.4566,-2.4517,-2.4507,-2.4537,-2.4471,-2.4464,-2.4452,-2.4463,-2.4429,-2.4427,-2.442,-2.4421,-2.4423,-2.4479,0,0,0,0,0,0,-2.4711,-2.4703,-2.4707,-2.4659,-2.4648,-2.4627,-2.4587,-2.4577,-2.4562,-2.4557,-2.4512,-2.4503,-2.447,-2.4455,-2.445,-2.446,-2.4426,-2.4419,-2.4421,-2.4422,-2.4476,-2.4482,-2.4487,0,0,0,0,0,-2.4715,-2.4726,-2.4707,-2.47,-2.4651,-2.4628,-2.4621,-2.4582,-2.4564,-2.4566,-2.4534,-2.4505,-2.4463,-2.4455,-2.4448,-2.4457,-2.4418,-2.442,-2.4422,-2.4473,-2.4481,-2.4487,0,0,0,0,0,0,-2.4777,-2.4719,-2.4697,-2.4694,-2.4666,-2.4617,-2.4619,-2.4592,-2.4569,-2.4564,-2.4517,-2.4507,-2.45,-2.4478,-2.4469,-2.4462,-2.4436,-2.4437,-2.4477,-2.4484,-2.449,-2.4495,-2.4424,0,0,0,0,0,-2.479,-2.4776,-2.4726,-2.4728,-2.4715,-2.467,-2.4658,-2.463,-2.4599,-2.4587,-2.4555,-2.4526,-2.4506,-2.4494,-2.4473,-2.4472,-2.446,-2.4475,-2.4481,-2.4486,-2.4487,-2.4482,-2.4487,-2.443,-2.443,-2.443,0,0,-2.4817,-2.4784,-2.4778,-2.4739,-2.4714,-2.47,-2.466,-2.4648,-2.4636,-2.4585,-2.4571,-2.4547,-2.4511,-2.4504,-2.45,-2.4485,-2.45,-2.4489,-2.4493,-2.4491,-2.4485,-2.449,-2.4495,-2.4432,-2.4432,-2.4431,0,0,-2.4859,-2.4833,-2.483,-2.4806,-2.4768,-2.4738,-2.4737,-2.4692,-2.4673,-2.4658,-2.4619,-2.4605,-2.4572,-2.4547,-2.4531,-2.4561,-2.4532,-2.4556,-2.4585,-2.4581,-2.4586,-2.4589,-2.4598,-2.4602,-2.4557,-2.4557,-2.4557,0,-2.4897,-2.4875,-2.4833,-2.4821,-2.4804,-2.4757,-2.4753,-2.4731,-2.4689,-2.4678,-2.4663,-2.4619,-2.4592,-2.4577,-2.4584,-2.4573,-2.4569,-2.456,-2.4589,-2.4592,-2.4595,-2.4602,-2.4606,-2.456,-2.456,-2.4559,-2.4559,0,-2.4923,-2.4907,-2.4909,-2.4869,-2.4852,-2.4845,-2.4801,-2.4789,-2.4762,-2.4733,-2.4717,-2.4683,-2.4653,-2.4647,-2.4622,-2.4628,-2.462,-2.4598,-2.457,-2.4604,-2.461,-2.4613,-2.4564,-2.4563,-2.4562,-2.4562,0,0,-2.5002,-2.4937,-2.4938,-2.4918,-2.4872,-2.4859,-2.4849,-2.4819,-2.4809,-2.4781,-2.477,-2.4742,-2.472,-2.4701,-2.4672,-2.4668,-2.4691,-2.4645,-2.4644,-2.4653,-2.4694,-2.471,-2.4714,-2.4672,-2.4672,-2.4673,-2.4696,0,-2.5035,-2.5014,-2.4974,-2.4965,-2.4949,-2.4903,-2.4894,-2.4864,-2.4836,-2.4818,-2.4787,-2.4767,-2.474,-2.4728,-2.4723,-2.469,-2.4698,-2.4688,-2.466,-2.4659,-2.4669,-2.4718,-2.4736,-2.4759,-2.4698,-2.4699,-2.4699,0,-2.5071,-2.5044,-2.5034,-2.4986,-2.4978,-2.4971,-2.4939,-2.4922,-2.4887,-2.4867,-2.4845,-2.4812,-2.4797,-2.4773,-2.475,-2.4744,-2.473,-2.4712,-2.4712,-2.4707,-2.4681,-2.4712,-2.4766,-2.4769,-2.4703,-2.4703,-2.4702,0,-2.5127,-2.5089,-2.5077,-2.5061,-2.5007,-2.5002,-2.4979,-2.4943,-2.4927,-2.4899,-2.4887,-2.4858,-2.4842,-2.482,-2.478,-2.4766,-2.4761,-2.4734,-2.4742,-2.4743,-2.4743,-2.4743,-2.4793,-2.4737,-2.4737,-2.4737,-2.4737,0,-2.5167,-2.5162,-2.5101,-2.5094,-2.5085,-2.504,-2.5033,-2.5006,-2.4973,-2.4958,-2.4918,-2.4904,-2.4853,-2.4833,-2.4802,-2.4787,-2.4781,-2.4763,-2.4754,-2.4765,-2.4767,-2.4755,-2.4751,-2.4737,-2.4737,-2.4737,-2.4737,0,-2.5228,-2.5188,-2.5171,-2.512,-2.5107,-2.5104,-2.506,-2.505,-2.5019,-2.5001,-2.4994,-2.4945,-2.492,-2.4878,-2.4841,-2.4819,-2.4809,-2.4796,-2.4821,-2.4816,-2.4825,-2.4824,-2.4868,-2.4871,-2.4815,-2.4815,-2.4816,0,-2.5256,-2.525,-2.5199,-2.5186,-2.5164,-2.5144,-2.5127,-2.5082,-2.5065,-2.5023,-2.5018,-2.4989,-2.4964,-2.4925,-2.4886,-2.4857,-2.4841,-2.4859,-2.4837,-2.4848,-2.4839,-2.4839,-2.4838,-2.4864,-2.4864,-2.4865,-2.4866,0,-2.5308,-2.5288,-2.5265,-2.5234,-2.5215,-2.5188,-2.516,-2.5151,-2.5099,-2.5083,-2.5056,-2.5036,-2.4997,-2.4969,-2.4934,-2.4909,-2.4878,-2.4873,-2.4873,-2.4884,-2.4898,-2.4888,-2.4833,-2.4872,-2.4871,-2.4871,-2.4871,-2.487,-2.5352,-2.5344,-2.5306,-2.5281,-2.5254,-2.5228,-2.5216,-2.5183,-2.516,-2.5124,-2.5099,-2.5073,-2.5036,-2.4985,-2.4962,-2.494,-2.4927,-2.4927,-2.4927,-2.4928,-2.4931,-2.4902,-2.4934,-2.4934,-2.4934,-2.4933,-2.4933,0,-2.54,-2.5373,-2.5351,-2.5311,-2.5291,-2.5264,-2.5231,-2.5215,-2.5193,-2.5161,-2.5136,-2.5105,-2.5076,-2.5034,-2.5002,-2.4993,-2.4978,-2.4986,-2.4985,-2.498,-2.4946,-2.4948,-2.4998,-2.4998,-2.4998,-2.4998,-2.4998,-2.4998,-2.5423,-2.5407,-2.5382,-2.5352,-2.5325,-2.5299,-2.5282,-2.5257,-2.5231,-2.5197,-2.5173,-2.5146,-2.5109,-2.5073,-2.5046,-2.5034,-2.5023,-2.5035,-2.5019,-2.4988,-2.4982,-2.4977,-2.4978,-2.5034,-2.5034,-2.5054,-2.5054,-2.5054]}]]